CW9849 Weather Reports


Display with metric or nautical units.
time (UTC)temp
F
wind
direction
speed
MPH
gust
MPH
rain 1hr
in
rain 24hr
in
rain mn
in
humidity
%
barometer
mb
20220118141523 53 184 6.0 10.0 0.00 0.00 0.00 74 1035.3
20220118140027 53 207 6.0 10.0 0.00 0.00 0.00 76 1035.4
20220118134527 53 200 7.0 11.0 0.00 0.00 0.00 75 1035.8
20220118133034 53 217 6.0 10.0 0.00 0.00 0.00 76 1035.9
20220118131534 53 211 7.0 13.0 0.00 0.00 0.00 76 1035.9
20220118130018 53 212 8.0 12.0 0.00 0.00 0.00 76 1036.1
20220118124511 53 205 8.0 12.0 0.00 0.00 0.00 75 1036.0
20220118123010 53 182 6.0 12.0 0.00 0.00 0.00 74 1036.0
20220118121521 52 175 7.0 10.0 0.00 0.00 0.00 75 1036.1
20220118120002 51 198 6.0 13.0 0.00 0.00 0.00 76 1036.4
20220118113156 49 189 5.0 9.0 0.00 0.00 0.00 82 1036.6
20220118111658 48 206 5.0 8.0 0.00 0.00 0.00 81 1036.6
20220118110122 49 196 4.0 9.0 0.00 0.00 0.00 82 1036.7
20220118104724 48 213 6.0 9.0 0.00 0.00 0.00 82 1036.7
20220118103102 48 200 7.0 11.0 0.00 0.00 0.00 81 1036.8
20220118101657 48 194 6.0 14.0 0.00 0.00 0.00 81 1036.9
20220118100144 47 174 9.0 13.0 0.00 0.00 0.00 82 1036.7
20220118094657 47 178 7.0 13.0 0.00 0.00 0.00 82 1036.4
20220118093055 47 168 6.0 12.0 0.00 0.00 0.00 80 1036.3
20220118091626 47 191 6.0 13.0 0.00 0.00 0.00 81 1036.4
20220118090046 47 143 6.0 12.0 0.00 0.00 0.00 81 1036.5
20220118084651 47 156 9.0 15.0 0.00 0.00 0.00 83 1036.3
20220118083104 47 136 7.0 11.0 0.00 0.00 0.00 83 1036.3
20220118081646 47 212 7.0 12.0 0.00 0.00 0.00 84 1036.2
20220118080123 46 174 6.0 11.0 0.00 0.00 0.00 83 1036.2
20220118074557 46 159 6.0 10.0 0.00 0.00 0.00 82 1036.2
20220118071534 46 135 4.0 10.0 0.00 0.00 0.00 82 1036.3
20220118070109 46 154 6.0 11.0 0.00 0.00 0.00 81 1036.4
20220118064535 47 144 5.0 10.0 0.00 0.00 0.00 82 1036.4
20220118063110 47 162 5.0 11.0 0.00 0.00 0.00 82 1036.6
20220118061600 47 165 5.0 10.0 0.00 0.00 0.00 82 1036.6
20220118060044 47 160 4.0 8.0 0.00 0.00 0.00 83 1036.6
20220118054531 47 143 5.0 10.0 0.00 0.00 0.00 82 1036.5
20220118053150 47 128 6.0 12.0 0.00 0.00 0.00 83 1036.6
20220118051540 47 144 5.0 11.0 0.00 0.00 0.00 83 1036.5
20220118050024 47 138 5.0 15.0 0.00 0.00 0.00 83 1036.5
20220118044606 47 128 8.0 13.0 0.00 0.00 0.00 81 1036.6
20220118043044 47 147 6.0 12.0 0.00 0.00 0.00 82 1036.7
20220118041526 47 127 7.0 14.0 0.00 0.00 0.00 81 1036.6
20220118040038 47 151 6.0 14.0 0.00 0.00 0.00 81 1036.6
20220118034527 47 130 7.0 14.0 0.00 0.00 0.00 81 1036.5
20220118033021 47 145 6.0 13.0 0.00 0.00 0.00 81 1036.8
20220118031538 47 158 9.0 16.0 0.00 0.00 0.00 80 1036.9
20220118030024 47 149 9.0 16.0 0.00 0.00 0.00 81 1037.1
20220118024513 47 162 8.0 12.0 0.00 0.00 0.00 81 1037.1
20220118023010 47 151 7.0 12.0 0.00 0.00 0.00 80 1037.4
20220118021504 47 123 6.0 13.0 0.00 0.00 0.00 81 1037.4
20220118020007 47 174 7.0 11.0 0.00 0.00 0.00 81 1037.5
20220118014724 47 172 5.0 11.0 0.00 0.00 0.00 81 1037.6
20220118013140 47 188 7.0 12.0 0.00 0.00 0.00 82 1037.7
20220118011651 47 151 5.0 11.0 0.00 0.00 0.00 83 1037.8
20220118010053 47 103 4.0 12.0 0.00 0.00 0.00 84 1037.9
20220118004559 48 156 5.0 10.0 0.00 0.00 0.00 85 1038.0
20220118003118 48 139 5.0 11.0 0.00 0.00 0.00 85 1038.2
20220118001600 47 120 4.0 9.0 0.00 0.00 0.00 86 1038.2
20220118000108 47 146 5.0 9.0 0.00 0.00 0.00 87 1038.1
20220117234645 47 145 4.0 13.0 0.00 0.00 0.00 86 1038.1
20220117233053 47 127 5.0 11.0 0.00 0.00 0.00 87 1038.2
20220117231617 47 145 4.0 10.0 0.00 0.00 0.00 87 1038.1
20220117230041 47 142 6.0 12.0 0.00 0.00 0.00 88 1038.2
20220117224555 47 162 6.0 11.0 0.00 0.00 0.00 88 1038.1
20220117223125 47 161 6.0 13.0 0.00 0.00 0.00 88 1038.3
20220117221638 47 144 5.0 11.0 0.00 0.00 0.00 88 1038.1
20220117220107 47 135 5.0 10.0 0.00 0.00 0.00 88 1038.4
20220117214638 47 146 5.0 10.0 0.00 0.00 0.00 88 1038.5
20220117213126 47 137 3.0 8.0 0.00 0.00 0.00 89 1038.5
20220117211611 47 145 5.0 9.0 0.00 0.00 0.00 89 1038.8
20220117210051 46 108 4.0 9.0 0.00 0.00 0.00 89 1038.8
20220117204558 46 182 4.0 9.0 0.00 0.00 0.00 89 1038.8
20220117203158 46 112 4.0 9.0 0.00 0.00 0.00 89 1038.9
20220117201539 46 133 5.0 10.0 0.00 0.00 0.00 89 1038.7
20220117200054 46 147 5.0 10.0 0.00 0.00 0.00 89 1038.7
20220117194629 46 112 4.0 10.0 0.00 0.00 0.00 88 1038.6
20220117193044 46 126 5.0 10.0 0.00 0.00 0.00 88 1038.5
20220117191556 46 105 5.0 10.0 0.00 0.00 0.00 88 1038.4
20220117190052 46 120 6.0 10.0 0.00 0.00 0.00 88 1038.4
20220117184532 46 144 5.0 11.0 0.00 0.00 0.00 87 1038.4
20220117183041 46 114 4.0 11.0 0.00 0.00 0.00 87 1038.4
20220117181529 46 98 5.0 12.0 0.00 0.00 0.00 88 1038.4
20220117180039 46 88 5.0 9.0 0.00 0.00 0.00 88 1038.7
20220117174547 46 74 5.0 11.0 0.00 0.00 0.00 88 1038.7
20220117173025 46 94 3.0 11.0 0.00 0.00 0.00 88 1038.8
20220117171520 46 86 4.0 8.0 0.00 0.00 0.00 88 1038.9
20220117170019 46 122 4.0 9.0 0.00 0.00 0.00 87 1039.0
20220117164517 46 89 4.0 9.0 0.00 0.00 0.00 86 1039.1
20220117163040 47 155 5.0 10.0 0.00 0.00 0.00 85 1038.9
20220117161530 48 140 3.0 9.0 0.00 0.00 0.00 84 1038.9
20220117160027 49 113 3.0 8.0 0.00 0.00 0.00 84 1038.9
20220117154516 49 108 4.0 9.0 0.00 0.00 0.00 85 1039.0
20220117153012 48 132 4.0 9.0 0.00 0.00 0.00 85 1039.1
20220117151533 48 156 5.0 11.0 0.00 0.00 0.00 85 1039.0
20220117150055 48 136 5.0 9.0 0.00 0.00 0.00 85 1039.1
20220117144509 49 103 5.0 12.0 0.00 0.00 0.00 84 1038.9
20220117143030 48 157 4.0 11.0 0.00 0.00 0.00 84 1039.0